CW2931 Weather Reports


Display with metric or nautical units.
time (UTC)temp
F
wind
direction
speed
MPH
gust
MPH
rain 1hr
in
rain 24hr
in
rain mn
in
humidity
%
barometer
mb
20260508072603 47 252 0.0 0.0 0.00 0.00 0.00 75 1011.0
20260508072103 47 248 0.0 0.0 0.00 0.00 0.00 75 1011.0
20260508071603 47 226 0.0 0.0 0.00 0.00 0.00 74 1011.0
20260508071103 47 215 0.0 0.0 0.00 0.00 0.00 74 1011.0
20260508070104 47 247 0.0 0.0 0.00 0.00 0.00 72 1011.0
20260508065603 47 248 0.0 0.0 0.00 0.00 0.00 71 1010.9
20260508065104 47 248 0.0 0.0 0.00 0.00 0.00 70 1011.0
20260508064604 47 248 0.0 0.0 0.00 0.00 0.00 70 1011.0
20260508064103 47 248 0.0 0.0 0.00 0.00 0.00 70 1011.0
20260508063604 47 248 0.0 0.0 0.00 0.00 0.00 70 1011.0
20260508063104 48 248 0.0 0.0 0.00 0.00 0.00 70 1011.0
20260508062604 48 249 0.0 0.0 0.00 0.00 0.00 70 1011.0
20260508062104 48 249 0.0 0.0 0.00 0.00 0.00 69 1010.9
20260508061603 48 250 0.0 0.0 0.00 0.00 0.00 69 1010.9
20260508061103 48 250 0.0 0.0 0.00 0.00 0.00 69 1011.0
20260508060604 48 249 0.0 0.0 0.00 0.00 0.00 68 1011.0
20260508055606 49 250 0.0 0.0 0.00 0.00 0.00 68 1011.0
20260508054105 49 251 0.0 0.0 0.00 0.00 0.00 66 1011.1
20260508053606 49 251 0.0 0.0 0.00 0.00 0.00 66 1011.2
20260508053105 50 252 0.0 0.0 0.00 0.00 0.00 66 1011.2
20260508052106 50 253 0.0 0.0 0.00 0.00 0.00 66 1011.3
20260508051606 50 253 0.0 0.0 0.00 0.00 0.00 66 1011.3
20260508051106 50 252 0.0 0.0 0.00 0.00 0.00 66 1011.3
20260508045605 51 242 0.0 0.0 0.00 0.00 0.00 65 1011.3
20260508045106 51 234 0.0 0.0 0.00 0.00 0.00 65 1011.2
20260508044605 51 238 0.0 0.0 0.00 0.00 0.00 65 1011.1
20260508044105 51 229 0.0 0.0 0.00 0.00 0.00 64 1011.1
20260508043606 51 244 0.0 0.0 0.00 0.00 0.00 64 1011.1
20260508043105 52 247 0.0 0.0 0.00 0.00 0.00 63 1011.0
20260508042605 52 232 0.0 0.0 0.00 0.00 0.00 63 1011.0
20260508042106 52 225 0.0 0.0 0.00 0.00 0.00 63 1011.0
20260508041605 52 232 0.0 0.0 0.00 0.00 0.00 62 1011.0
20260508041105 52 222 0.0 0.0 0.00 0.00 0.00 62 1011.0
20260508040605 52 257 0.0 0.0 0.00 0.00 0.00 62 1011.1
20260508040105 52 250 0.0 0.0 0.00 0.00 0.00 62 1011.0
20260508035606 52 232 0.0 0.0 0.00 0.00 0.00 62 1011.1
20260508035106 52 214 0.0 0.0 0.00 0.00 0.00 61 1011.1
20260508034105 53 198 0.0 0.0 0.00 0.00 0.00 61 1011.2
20260508033605 53 236 0.0 0.0 0.00 0.00 0.00 60 1011.4
20260508033106 53 234 0.0 0.0 0.00 0.00 0.00 59 1011.5
20260508032606 53 239 0.0 0.0 0.00 0.00 0.00 59 1011.5
20260508032106 53 213 0.0 0.0 0.00 0.00 0.00 59 1011.5
20260508031606 53 233 0.0 0.0 0.00 0.00 0.00 58 1011.6
20260508031105 53 269 0.0 0.0 0.00 0.00 0.00 57 1011.6
20260508030605 53 225 0.0 0.0 0.00 0.00 0.00 56 1011.6
20260508030105 53 245 0.0 0.0 0.00 0.00 0.00 55 1011.7
20260508025605 53 241 0.0 0.0 0.00 0.00 0.00 55 1011.6
20260508025105 53 258 0.0 0.0 0.00 0.00 0.00 55 1011.6
20260508024605 53 263 0.0 0.0 0.00 0.00 0.00 54 1011.7
20260508024105 53 263 0.0 0.0 0.00 0.00 0.00 54 1011.8
20260508023105 53 275 0.0 0.0 0.00 0.00 0.00 53 1011.7
20260508022605 53 203 0.0 0.0 0.00 0.00 0.00 53 1011.6
20260508022105 53 212 0.0 0.0 0.00 0.00 0.00 52 1011.6
20260508021605 52 261 0.0 0.0 0.00 0.00 0.00 52 1011.6
20260508021105 52 249 0.0 0.0 0.00 0.00 0.00 54 1011.6
20260508020605 52 258 0.0 0.0 0.00 0.00 0.00 56 1011.6
20260508020106 52 257 0.0 0.0 0.00 0.00 0.00 55 1011.5
20260508015605 52 257 0.0 0.0 0.00 0.00 0.00 55 1011.3
20260508015106 52 257 0.0 0.0 0.00 0.00 0.00 54 1011.2
20260508014105 52 257 0.0 0.0 0.00 0.00 0.00 52 1011.2
20260508013606 53 257 0.0 0.0 0.00 0.00 0.00 51 1011.1
20260508013107 53 257 0.0 0.0 0.00 0.00 0.00 50 1011.0
20260508012605 53 257 0.0 0.0 0.00 0.00 0.00 49 1010.9
20260508012105 53 257 0.0 0.0 0.00 0.00 0.00 49 1010.8
20260508011605 54 257 0.0 0.0 0.00 0.00 0.00 48 1010.7
20260508011105 54 257 0.0 0.0 0.00 0.00 0.00 47 1010.6
20260508010106 55 257 0.0 0.0 0.00 0.00 0.00 45 1010.6
20260508005605 55 257 0.0 0.0 0.00 0.00 0.00 45 1010.7
20260508005105 55 257 0.0 0.0 0.00 0.00 0.00 44 1010.6
20260508004605 55 256 0.0 0.0 0.00 0.00 0.00 44 1010.6
20260508003605 55 256 0.0 0.0 0.00 0.00 0.00 43 1010.5
20260508003105 55 256 0.0 0.0 0.00 0.00 0.00 43 1010.5
20260508002605 56 249 0.0 0.0 0.00 0.00 0.00 43 1010.5
20260508001105 56 274 0.0 0.0 0.00 0.00 0.00 41 1010.5
20260507235105 56 274 0.0 0.0 0.00 0.00 0.00 40 1010.5
20260507234105 57 235 0.0 0.0 0.00 0.00 0.00 39 1010.5
20260507233605 57 271 0.0 0.0 0.00 0.00 0.00 39 1010.5
20260507233106 57 276 0.0 0.0 0.00 0.00 0.00 39 1010.5
20260507232605 57 257 0.0 0.0 0.00 0.00 0.00 38 1010.5
20260507232105 58 263 0.0 0.0 0.00 0.00 0.00 38 1010.5
20260507230605 58 254 0.0 0.0 0.00 0.00 0.00 38 1010.5
20260507230105 58 296 0.0 0.0 0.00 0.00 0.00 38 1010.5
20260507225605 58 249 0.0 0.0 0.00 0.00 0.00 37 1010.6
20260507224605 59 282 0.0 0.0 0.00 0.00 0.00 36 1010.6
20260507224105 59 268 0.0 0.0 0.00 0.00 0.00 37 1010.7
20260507223605 59 286 0.0 0.0 0.00 0.00 0.00 38 1010.8
20260507223105 58 270 0.0 0.0 0.00 0.00 0.00 39 1010.8
20260507222605 58 253 0.0 0.0 0.00 0.00 0.00 37 1010.7
20260507222105 58 266 0.0 0.0 0.00 0.00 0.00 37 1010.8
20260507221605 58 290 0.0 0.0 0.00 0.00 0.00 37 1010.9
20260507221105 58 296 0.0 0.0 0.00 0.00 0.00 38 1010.9
20260507220606 58 260 0.0 0.0 0.00 0.00 0.00 38 1010.9
20260507220105 58 262 0.0 0.0 0.00 0.00 0.00 37 1010.9
20260507215605 58 268 0.0 0.0 0.00 0.00 0.00 37 1010.7
20260507215105 59 298 0.0 0.0 0.00 0.00 0.00 37 1010.8
20260507214105 60 261 0.0 0.0 0.00 0.00 0.00 35 1010.7
20260507213605 60 314 0.0 0.0 0.00 0.00 0.00 35 1010.6
20260507213105 60 312 0.0 0.0 0.00 0.00 0.00 36 1010.6
20260507212105 60 266 0.0 0.0 0.00 0.00 0.00 37 1010.7
20260507211605 59 251 0.0 0.0 0.00 0.00 0.00 37 1010.5
20260507211105 59 266 0.0 0.0 0.00 0.00 0.00 37 1010.8
20260507210605 59 280 0.0 0.0 0.00 0.00 0.00 38 1010.7
20260507210105 59 272 0.0 0.0 0.00 0.00 0.00 36 1010.9
20260507205605 59 277 0.0 0.0 0.00 0.00 0.00 37 1010.8
20260507205105 59 262 0.0 0.0 0.00 0.00 0.00 36 1010.7
20260507203606 58 290 0.0 0.0 0.00 0.00 0.00 37 1010.9
20260507202605 59 297 0.0 0.0 0.00 0.00 0.00 35 1011.0
20260507202105 59 314 0.0 0.0 0.00 0.00 0.00 36 1010.9
20260507201605 59 1 0.0 0.0 0.00 0.00 0.00 36 1010.9
20260507201105 59 284 0.0 0.0 0.00 0.00 0.00 37 1011.0
20260507200605 59 322 0.0 0.0 0.00 0.00 0.00 36 1010.9
20260507200105 59 280 0.0 0.0 0.00 0.00 0.00 37 1011.0
20260507195605 60 253 0.0 0.0 0.00 0.00 0.00 34 1011.0
20260507195105 60 331 0.0 0.0 0.00 0.00 0.00 36 1011.0
20260507194605 60 315 0.0 0.0 0.00 0.00 0.00 35 1011.1
20260507193605 59 245 0.0 0.0 0.00 0.00 0.00 37 1011.0
20260507192604 58 304 0.0 0.0 0.00 0.00 0.00 36 1011.1
20260507192105 59 289 0.0 0.0 0.00 0.00 0.00 36 1011.1
20260507191605 59 313 0.0 0.0 0.00 0.00 0.00 36 1011.1
20260507191105 59 276 0.0 0.0 0.00 0.00 0.00 37 1011.1
20260507190605 59 261 0.0 0.0 0.00 0.00 0.00 36 1011.2
20260507190105 59 267 0.0 0.0 0.00 0.00 0.00 36 1011.1
20260507185605 59 251 0.0 0.0 0.00 0.00 0.00 37 1011.2
20260507184605 59 275 0.0 0.0 0.00 0.00 0.00 36 1011.2
20260507184105 59 324 0.0 0.0 0.00 0.00 0.00 37 1011.1
20260507183604 59 253 0.0 0.0 0.00 0.00 0.00 38 1011.3
20260507182605 59 249 0.0 0.0 0.00 0.00 0.00 39 1011.3
20260507182105 58 264 0.0 0.0 0.00 0.00 0.00 41 1011.3
20260507181605 58 348 0.0 0.0 0.00 0.00 0.00 40 1011.3
20260507181104 58 274 0.0 0.0 0.00 0.00 0.00 40 1011.4
20260507180605 58 0 0.0 0.0 0.00 0.00 0.00 41 1011.3
20260507175105 59 303 0.0 0.0 0.00 0.00 0.00 41 1011.5
20260507174604 59 250 0.0 0.0 0.00 0.00 0.00 40 1011.6
20260507174105 58 336 0.0 0.0 0.00 0.00 0.00 41 1011.5
20260507173605 58 235 0.0 0.0 0.00 0.00 0.00 42 1011.5
20260507173105 57 298 0.0 0.0 0.00 0.00 0.00 41 1011.6
20260507172605 57 242 0.0 0.0 0.00 0.00 0.00 40 1011.6
20260507172105 58 287 0.0 0.0 0.00 0.00 0.00 39 1011.6
20260507171605 58 298 0.0 0.0 0.00 0.00 0.00 39 1011.6
20260507171105 59 304 0.0 0.0 0.00 0.00 0.00 42 1011.6
20260507170105 59 271 0.0 0.0 0.00 0.00 0.00 42 1011.7
20260507165605 58 264 0.0 0.0 0.00 0.00 0.00 42 1011.7
20260507165105 58 247 0.0 0.0 0.00 0.00 0.00 42 1011.7
20260507164605 57 263 0.0 0.0 0.00 0.00 0.00 41 1011.8
20260507164104 57 278 0.0 0.0 0.00 0.00 0.00 42 1012.0
20260507163605 57 241 0.0 0.0 0.00 0.00 0.00 43 1011.9
20260507163105 57 285 0.0 0.0 0.00 0.00 0.00 42 1011.9
20260507162605 57 318 0.0 0.0 0.00 0.00 0.00 42 1011.9
20260507162105 57 263 0.0 0.0 0.00 0.00 0.00 43 1011.9
20260507161604 58 266 0.0 0.0 0.00 0.00 0.00 42 1012.0
20260507161105 58 267 0.0 0.0 0.00 0.00 0.00 42 1011.8
20260507160605 58 250 0.0 0.0 0.00 0.00 0.00 42 1011.9
20260507160105 58 274 0.0 0.0 0.00 0.00 0.00 44 1012.0
20260507155604 58 267 0.0 0.0 0.00 0.00 0.00 42 1012.0
20260507155105 58 38 0.0 0.0 0.00 0.00 0.00 43 1011.8
20260507154605 57 256 0.0 0.0 0.00 0.00 0.00 43 1011.9
20260507153605 57 255 0.0 0.0 0.00 0.00 0.00 44 1011.9
20260507153105 57 264 0.0 0.0 0.00 0.00 0.00 42 1012.0
20260507152605 57 330 0.0 0.0 0.00 0.00 0.00 43 1011.8
20260507152105 57 340 0.0 0.0 0.00 0.00 0.00 43 1011.8
20260507151605 57 297 0.0 0.0 0.00 0.00 0.00 42 1011.7
20260507151105 57 275 0.0 0.0 0.00 0.00 0.00 43 1011.8
20260507150605 57 314 0.0 0.0 0.00 0.00 0.00 44 1011.9
20260507150105 57 345 0.0 0.0 0.00 0.00 0.00 44 1011.9
20260507145604 56 331 0.0 0.0 0.00 0.00 0.00 45 1012.1
20260507145105 56 256 0.0 0.0 0.00 0.00 0.00 44 1012.1
20260507144605 56 265 0.0 0.0 0.00 0.00 0.00 44 1012.0
20260507144105 56 269 0.0 0.0 0.00 0.00 0.00 44 1012.0
20260507143605 56 216 0.0 0.0 0.00 0.00 0.00 45 1012.0
20260507143104 56 299 0.0 0.0 0.00 0.00 0.00 47 1012.1
20260507142605 55 261 0.0 0.0 0.00 0.00 0.00 47 1012.1
20260507142105 55 273 0.0 0.0 0.00 0.00 0.00 45 1012.1
20260507141605 55 298 0.0 0.0 0.00 0.00 0.00 44 1012.1
20260507140604 55 312 0.0 0.0 0.00 0.00 0.00 46 1012.2
20260507140105 54 305 0.0 0.0 0.00 0.00 0.00 48 1012.3
20260507135605 54 240 0.0 0.0 0.00 0.00 0.00 47 1012.4
20260507134605 54 258 0.0 0.0 0.00 0.00 0.00 48 1012.5
20260507133605 54 246 0.0 0.0 0.00 0.00 0.00 49 1012.5
20260507133105 54 252 0.0 0.0 0.00 0.00 0.00 50 1012.5
20260507132605 54 245 0.0 0.0 0.00 0.00 0.00 52 1012.4
20260507132104 53 256 0.0 0.0 0.00 0.00 0.00 53 1012.5
20260507131605 53 0 0.0 0.0 0.00 0.00 0.00 54 1012.6
20260507131105 52 325 0.0 0.0 0.00 0.00 0.00 57 1012.6
20260507130606 52 328 0.0 0.0 0.00 0.00 0.00 57 1012.6
20260507130104 51 328 0.0 0.0 0.00 0.00 0.00 58 1012.6
20260507125604 51 224 0.0 0.0 0.00 0.00 0.00 58 1012.5
20260507125105 50 319 0.0 0.0 0.00 0.00 0.00 60 1012.6
20260507124605 50 346 0.0 0.0 0.00 0.00 0.00 60 1012.6
20260507124105 49 273 0.0 0.0 0.00 0.00 0.00 62 1012.6
20260507123106 48 264 0.0 0.0 0.00 0.00 0.00 66 1012.6
20260507122604 48 270 0.0 0.0 0.00 0.00 0.00 68 1012.6
20260507122105 47 267 0.0 0.0 0.00 0.00 0.00 72 1012.6
20260507121605 46 283 0.0 0.0 0.00 0.00 0.00 74 1012.6
20260507120605 44 262 0.0 0.0 0.00 0.00 0.00 77 1012.6
20260507120105 44 256 0.0 0.0 0.00 0.00 0.00 78 1012.6
20260507115105 43 230 0.0 0.0 0.00 0.00 0.00 77 1012.5
20260507114604 42 255 0.0 0.0 0.00 0.00 0.00 77 1012.5
20260507114105 42 284 0.0 0.0 0.00 0.00 0.00 76 1012.4
20260507113605 42 276 0.0 0.0 0.00 0.00 0.00 76 1012.4
20260507113105 42 281 0.0 0.0 0.00 0.00 0.00 75 1012.2
20260507112605 42 283 0.0 0.0 0.00 0.00 0.00 75 1012.2
20260507112105 41 284 0.0 0.0 0.00 0.00 0.00 74 1012.2
20260507111605 41 284 0.0 0.0 0.00 0.00 0.00 74 1012.2
20260507111105 41 281 0.0 0.0 0.00 0.00 0.00 74 1012.2
20260507110604 41 282 0.0 0.0 0.00 0.00 0.00 74 1012.1
20260507110104 42 281 0.0 0.0 0.00 0.00 0.00 73 1012.1
20260507105605 42 282 0.0 0.0 0.00 0.00 0.00 73 1012.1
20260507105105 42 283 0.0 0.0 0.00 0.00 0.00 72 1011.9
20260507104604 42 284 0.0 0.0 0.00 0.00 0.00 72 1011.9
20260507104105 42 284 0.0 0.0 0.00 0.00 0.00 72 1011.9
20260507103105 42 284 0.0 0.0 0.00 0.00 0.00 72 1011.9
20260507102604 42 284 0.0 0.0 0.00 0.00 0.00 71 1011.8
20260507102104 43 284 0.0 0.0 0.00 0.00 0.00 71 1011.8
20260507101605 43 284 0.0 0.0 0.00 0.00 0.00 71 1011.7
20260507100104 43 284 0.0 0.0 0.00 0.00 0.00 71 1011.6
20260507095605 44 283 0.0 0.0 0.00 0.00 0.00 71 1011.6
20260507095105 44 282 0.0 0.0 0.00 0.00 0.00 71 1011.6
20260507094605 44 282 0.0 0.0 0.00 0.00 0.00 71 1011.6
20260507094105 44 284 0.0 0.0 0.00 0.00 0.00 71 1011.6
20260507093605 44 284 0.0 0.0 0.00 0.00 0.00 71 1011.6
20260507093105 44 282 0.0 0.0 0.00 0.00 0.00 71 1011.7
20260507092604 45 282 0.0 0.0 0.00 0.00 0.00 71 1011.7
20260507092105 45 282 0.0 0.0 0.00 0.00 0.00 71 1011.7
20260507091105 45 281 0.0 0.0 0.00 0.00 0.00 72 1011.7
20260507090604 45 282 0.0 0.0 0.00 0.00 0.00 72 1011.8
20260507090105 45 282 0.0 0.0 0.00 0.00 0.00 72 1011.8
20260507085606 45 283 0.0 0.0 0.00 0.00 0.00 72 1012.0
20260507085105 45 283 0.0 0.0 0.00 0.00 0.00 72 1011.9
20260507084605 45 282 0.0 0.0 0.00 0.00 0.00 72 1012.0
20260507084104 45 282 0.0 0.0 0.00 0.00 0.00 72 1012.0
20260507083605 45 282 0.0 0.0 0.00 0.00 0.00 72 1012.1
20260507082604 45 282 0.0 0.0 0.00 0.00 0.00 72 1012.0
20260507082105 45 282 0.0 0.0 0.00 0.00 0.00 72 1012.0
20260507081104 45 281 0.0 0.0 0.00 0.00 0.00 71 1012.0
20260507080605 46 281 0.0 0.0 0.00 0.00 0.00 71 1012.0
20260507080105 46 281 0.0 0.0 0.00 0.00 0.00 70 1012.0
20260507075604 46 280 0.0 0.0 0.00 0.00 0.00 70 1012.0
20260507075104 46 280 0.0 0.0 0.00 0.00 0.00 69 1012.0
20260507074604 46 280 0.0 0.0 0.00 0.00 0.00 69 1011.9
20260507074104 46 280 0.0 0.0 0.00 0.00 0.00 69 1011.9
20260507073604 46 281 0.0 0.0 0.00 0.00 0.00 69 1011.9
20260507073104 46 281 0.0 0.0 0.00 0.00 0.00 68 1011.9